Total_Precipitation_Accumulation
0.01 0.00 0.02 0.03 0.01 0.00 0.00 0.00 0.00 0.00 0.00 0.00 0.00 0.00 0.00 0.00 0.01 0.02 0.04 0.13 0.19 0.11 0.01 0.00 0.02 0.09 0.12 0.07 0.06 0.02 0.00 0.00 0.01 0.00 0.01 0.01 0.01 0.00 0.01 0.01 0.00 0.00 0.00
0.00 0.00 0.02 0.03 0.01 0.00 0.00 0.00 0.00 0.00 0.00 0.00 0.00 0.00 0.00 0.00 0.02 0.04 0.08 0.16 0.11 0.06 0.01 0.00 0.03 0.13 0.12 0.08 0.03 0.00 0.00 0.00 0.00 0.01 0.01 0.01 0.00 0.00 0.00 0.00 0.00 0.00 0.00
0.00 0.00 0.01 0.02 0.00 0.00 0.00 0.00 0.00 0.00 0.00 0.00 0.00 0.00 0.00 0.01 0.05 0.06 0.12 0.15 0.10 0.01 0.00 0.00 0.03 0.16 0.18 0.05 0.01 0.01 0.00 0.00 0.00 0.00 0.00 0.00 0.00 0.00 0.00 0.00 0.00 0.00 0.00
0.00 0.00 0.00 0.01 0.00 0.00 0.00 0.00 0.00 0.00 0.00 0.00 0.00 0.00 0.00 0.01 0.03 0.04 0.11 0.13 0.08 0.00 0.00 0.01 0.04 0.21 0.16 0.02 0.05 0.00 0.00 0.00 0.00 0.00 0.00 0.00 0.00 0.00 0.00 0.00 0.00 0.00 0.00
0.02 0.00 0.00 0.00 0.00 0.00 0.00 0.00 0.00 0.00 0.00 0.00 0.00 0.00 0.01 0.02 0.03 0.04 0.10 0.13 0.03 0.00 0.00 0.00 0.04 0.14 0.12 0.05 0.03 0.00 0.00 0.00 0.00 0.00 0.00 0.00 0.00 0.00 0.00 0.00 0.00 0.00 0.00
0.06 0.03 0.01 0.00 0.00 0.00 0.00 0.00 0.00 0.00 0.00 0.00 0.00 0.01 0.01 0.01 0.03 0.06 0.09 0.16 0.06 0.01 0.00 0.00 0.04 0.04 0.02 0.06 0.01 0.00 0.00 0.00 0.00 0.00 0.00 0.00 0.00 0.00 0.00 0.00 0.00 0.00 0.00
0.14 0.08 0.04 0.01 0.00 0.00 0.00 0.00 0.00 0.00 0.00 0.01 0.00 0.01 0.01 0.00 0.01 0.05 0.09 0.15 0.16 0.03 0.00 0.00 0.03 0.04 0.00 0.01 0.00 0.00 0.00 0.00 0.00 0.00 0.00 0.00 0.00 0.00 0.00 0.00 0.00 0.00 0.00
0.18 0.11 0.06 0.03 0.00 0.00 0.00 0.00 0.00 0.00 0.00 0.00 0.00 0.01 0.03 0.03 0.01 0.02 0.07 0.09 0.10 0.12 0.02 0.00 0.01 0.04 0.00 0.00 0.00 0.00 0.00 0.00 0.00 0.00 0.00 0.00 0.00 0.00 0.00 0.00 0.00 0.00 0.00
0.21 0.18 0.06 0.06 0.03 0.00 0.00 0.00 0.00 0.00 0.00 0.00 0.00 0.00 0.00 0.01 0.01 0.00 0.03 0.09 0.06 0.07 0.06 0.01 0.01 0.02 0.01 0.03 0.01 0.00 0.00 0.00 0.00 0.00 0.00 0.00 0.00 0.00 0.00 0.00 0.00 0.00 0.00
0.22 0.17 0.08 0.03 0.04 0.02 0.00 0.00 0.00 0.00 0.00 0.00 0.00 0.00 0.00 0.00 0.00 0.00 0.00 0.04 0.10 0.07 0.05 0.03 0.01 0.02 0.02 0.04 0.03 0.00 0.00 0.00 0.00 0.00 0.00 0.00 0.00 0.00 0.00 0.00 0.00 0.00 0.00
0.61 0.39 0.21 0.13 0.03 0.02 0.00 0.00 0.00 0.00 0.00 0.00 0.00 0.00 0.00 0.00 0.00 0.00 0.00 0.00 0.03 0.05 0.03 0.03 0.04 0.03 0.02 0.03 0.03 0.01 0.00 0.00 0.00 0.00 0.01 0.01 0.00 0.01 0.01 0.01 0.00 0.00 0.00
0.34 0.54 0.56 0.33 0.10 0.05 0.02 0.01 0.00 0.00 0.00 0.00 0.00 0.00 0.00 0.00 0.00 0.00 0.00 0.00 0.00 0.00 0.01 0.01 0.03 0.06 0.08 0.08 0.07 0.04 0.02 0.01 0.00 0.01 0.05 0.12 0.06 0.03 0.02 0.01 0.01 0.00 0.00
0.26 0.22 0.32 0.43 0.31 0.15 0.09 0.06 0.03 0.00 0.00 0.00 0.00 0.00 0.00 0.00 0.00 0.00 0.00 0.00 0.00 0.00 0.01 0.00 0.01 0.01 0.03 0.05 0.06 0.09 0.06 0.03 0.02 0.04 0.07 0.24 0.36 0.25 0.16 0.14 0.15 0.06 0.00
0.30 0.35 0.32 0.25 0.30 0.31 0.23 0.21 0.19 0.10 0.01 0.00 0.00 0.00 0.00 0.00 0.00 0.00 0.00 0.00 0.00 0.00 0.00 0.00 0.00 0.00 0.00 0.00 0.01 0.03 0.04 0.04 0.03 0.04 0.06 0.17 0.42 0.38 0.26 0.22 0.22 0.25 0.18
0.15 0.32 0.49 0.40 0.30 0.23 0.30 0.28 0.27 0.26 0.19 0.08 0.01 0.00 0.00 0.00 0.00 0.00 0.00 0.00 0.00 0.00 0.00 0.00 0.00 0.00 0.00 0.00 0.00 0.01 0.01 0.02 0.02 0.03 0.03 0.03 0.08 0.12 0.13 0.16 0.17 0.18 0.22
0.15 0.16 0.24 0.47 0.51 0.40 0.26 0.16 0.14 0.17 0.30 0.29 0.18 0.07 0.00 0.00 0.00 0.00 0.00 0.00 0.00 0.00 0.00 0.00 0.00 0.00 0.00 0.00 0.00 0.00 0.00 0.01 0.02 0.03 0.04 0.03 0.02 0.03 0.02 0.03 0.06 0.06 0.09
0.35 0.20 0.19 0.20 0.32 0.46 0.36 0.28 0.13 0.08 0.09 0.17 0.25 0.20 0.07 0.00 0.00 0.00 0.00 0.00 0.00 0.00 0.00 0.00 0.00 0.00 0.00 0.00 0.00 0.00 0.01 0.01 0.00 0.02 0.05 0.07 0.07 0.07 0.06 0.05 0.04 0.05 0.07
0.56 0.46 0.30 0.27 0.27 0.24 0.35 0.33 0.23 0.17 0.09 0.06 0.09 0.13 0.07 0.04 0.01 0.00 0.00 0.00 0.00 0.00 0.00 0.00 0.00 0.00 0.00 0.00 0.00 0.00 0.00 0.00 0.00 0.00 0.01 0.02 0.03 0.05 0.06 0.05 0.04 0.05 0.05
0.34 0.60 0.52 0.35 0.37 0.31 0.25 0.28 0.27 0.21 0.19 0.15 0.10 0.07 0.06 0.05 0.02 0.01 0.01 0.02 0.01 0.00 0.00 0.00 0.00 0.00 0.00 0.00 0.00 0.00 0.00 0.00 0.00 0.00 0.00 0.00 0.00 0.00 0.00 0.01 0.02 0.04 0.05
0.39 0.38 0.56 0.43 0.29 0.43 0.41 0.30 0.24 0.15 0.15 0.21 0.22 0.17 0.16 0.14 0.09 0.05 0.03 0.02 0.01 0.01 0.01 0.01 0.00 0.00 0.00 0.00 0.00 0.00 0.00 0.00 0.00 0.00 0.00 0.00 0.00 0.01 0.02 0.02 0.02 0.02 0.01
0.15 0.38 0.47 0.53 0.35 0.22 0.30 0.42 0.34 0.20 0.11 0.12 0.17 0.21 0.20 0.21 0.16 0.10 0.06 0.04 0.04 0.03 0.02 0.01 0.02 0.01 0.01 0.00 0.00 0.00 0.00 0.00 0.00 0.00 0.00 0.02 0.03 0.03 0.05 0.07 0.06 0.05 0.05
0.20 0.16 0.35 0.51 0.54 0.31 0.23 0.18 0.22 0.31 0.20 0.12 0.14 0.12 0.15 0.22 0.24 0.27 0.17 0.10 0.06 0.05 0.03 0.02 0.01 0.01 0.01 0.01 0.01 0.02 0.02 0.01 0.01 0.00 0.04 0.05 0.07 0.06 0.07 0.11 0.17 0.12 0.10
0.25 0.22 0.16 0.33 0.55 0.53 0.40 0.20 0.16 0.13 0.14 0.11 0.11 0.16 0.16 0.12 0.16 0.16 0.26 0.22 0.19 0.14 0.07 0.04 0.04 0.03 0.02 0.02 0.05 0.07 0.07 0.08 0.08 0.06 0.11 0.14 0.14 0.16 0.16 0.20 0.22 0.15 0.10
0.31 0.27 0.18 0.15 0.23 0.43 0.49 0.42 0.32 0.23 0.14 0.07 0.06 0.08 0.14 0.14 0.11 0.10 0.11 0.17 0.14 0.14 0.13 0.08 0.03 0.04 0.06 0.09 0.15 0.18 0.20 0.22 0.17 0.13 0.14 0.16 0.11 0.16 0.16 0.16 0.30 0.18 0.12
0.49 0.36 0.35 0.28 0.17 0.18 0.30 0.45 0.52 0.50 0.32 0.10 0.05 0.03 0.08 0.10 0.16 0.18 0.14 0.16 0.23 0.25 0.25 0.30 0.25 0.24 0.25 0.27 0.25 0.23 0.20 0.22 0.19 0.12 0.16 0.16 0.08 0.13 0.16 0.14 0.17 0.27 0.16
0.78 0.74 0.50 0.54 0.53 0.24 0.25 0.22 0.44 0.65 0.63 0.23 0.10 0.13 0.17 0.15 0.27 0.27 0.24 0.17 0.18 0.16 0.20 0.31 0.35 0.28 0.22 0.25 0.32 0.22 0.16 0.17 0.14 0.10 0.09 0.19 0.11 0.17 0.16 0.06 0.09 0.15 0.14